sat.trackr.live / text

‹ back to catalog

STARLINK-31911

NORAD 60587 · 2024-150E

PAYLOAD ACTIVE UNKNOWN

§ Identity

Operator
Country
US
Launch date
2024-08-20
Launch site
AFETR
Launch vehicle
Mass (kg)
RCS (m²)

Purposes: comms

External: N2YO · Heavens-Above · Gunter

§ Orbital elements

Epoch: 2026-09-21T20:11:26.854656Z

Period
93.85 min
Inclination
53.1591°
Eccentricity
0.0001225
Mean motion
15.34385652 rev/d
Perigee alt
461.9 km
Apogee alt
463.6 km
Semi-major
6,840.9 km
B*
4.4268e-6
RAAN
111.6276°
Arg perigee
91.7643°
Mean anomaly
268.3500°
Rev number
11,805

§ Raw data

STARLINK-319111 60587U 24150E   26264.84128304 -.00000227  00000+0  44268-5 0  99982 60587  53.1591 111.6276 0001225  91.7643 268.3500 15.34385652118057

JSON: /api/v1/satellites/60587 · /tle

For live sub-satellite position, see the globe view (requires WebGL).

§ Visibility from observer

Set your observer location to see the next 7 days of passes ≥ 10°. The values pass through the URL so the page stays shareable.

No JS? Fill the form by hand. The geolocation button needs JavaScript.